Flag for U.S.A. Weather past 2 weeks in Bozeman, Montana, U.S.A.

Now
32 °F

Overcast.


Feels Like: 29 °F
Forecast: 34 / 58 °F
Wind: 3 mph from Southeast

Location: Gallatin Field


UV Index: 0 (Low)

Visibility: 10 mi


Pressure: 29.99 "Hg

Humidity: 82%

Dew point: 27 °F

Location of BozemanLocation

Historic Weather in Bozeman

°F

Bozeman temperature yesterday

Maximum temperature yesterday: 49 °F (at 4:56 PM)
Minimum temperature yesterday: 32 °F (at 5:56 AM)
Average temperature yesterday: 41 °F

Past Weeks' High & Low Weather Summary

 TemperatureHumidityPressure
High70 °F (Apr 8, 3:56 PM)97% (Apr 5, 2:56 AM)30.49 "Hg (Apr 5, 2:56 AM)
Low15 °F (Apr 14, 2:56 AM)12% (Apr 14, 4:56 PM)29.69 "Hg (Apr 15, 12:56 PM)
Average41 °F54%30.00 "Hg
* Reported Apr 2 5:56 AM — Apr 17 5:56 AM, Bozeman, Weather by CustomWeather, © 2014

Note: Actual official high and low records may vary slightly from our data, if they occured in-between our weather recording intervals... More about our weather records

Advertising

Historic Weather Conditions — Data for Previous 24 hours

 ConditionsComfort  
Time TempWeatherWind HumidityBarometerVisibility
5:56 AM
Apr 17
32 °FOvercast.3 mph82%29.99 "Hg10 mi
4:56 AM34 °FOvercast.No wind82%29.98 "Hg10 mi
3:56 AM36 °FOvercast.6 mph79%29.99 "Hg10 mi
2:56 AM33 °FPassing clouds.7 mph82%30.01 "Hg10 mi
1:56 AM37 °FOvercast.3 mph73%30.02 "Hg10 mi
12:56 AM35 °FMostly cloudy.7 mph78%30.03 "Hg10 mi
11:56 PM
Apr 16
39 °FPassing clouds.8 mph67%30.02 "Hg10 mi
10:56 PM41 °FOvercast.8 mph60%30.01 "Hg10 mi
9:56 PM39 °FMostly cloudy.No wind65%30.02 "Hg10 mi
8:56 PM45 °FMore clouds than sun.No wind37%30.00 "Hg10 mi
7:56 PM45 °FMostly cloudy.3 mph42%29.99 "Hg10 mi
6:56 PM46 °FMostly cloudy.10 mph38%30.00 "Hg10 mi
5:56 PM48 °FPartly sunny.10 mph34%29.99 "Hg10 mi
4:56 PM49 °FScattered clouds.6 mph32%29.98 "Hg10 mi
3:56 PM47 °FMore clouds than sun.12 mph36%29.99 "Hg10 mi
2:56 PM46 °FOvercast.10 mph40%30.01 "Hg10 mi
1:56 PM45 °FMostly cloudy.3 mph37%30.00 "Hg10 mi
12:56 PM42 °FOvercast.14 mph60%30.02 "Hg10 mi
11:56 AM43 °FOvercast.10 mph47%30.02 "Hg10 mi
10:56 AM44 °FMostly cloudy.6 mph41%30.01 "Hg10 mi
9:56 AM43 °FOvercast.3 mph47%30.01 "Hg10 mi
8:56 AM39 °FPartly sunny.No wind55%30.03 "Hg10 mi
7:56 AM36 °FOvercast.6 mph67%30.03 "Hg10 mi
Weather by CustomWeather, © 2014

See weather overview